Location: Campo Claro
(10.4907°N, 66.8285°W)
Time: 07:31:07
(UTC+00:00)

CZ-4C R/B - Pass Details

Date: 08 December 2021
Orbit: 593 x 1408 km, 63.4° (Epoch: 24 January)

Event Time Altitude Azimuth Distance (km) Brightness Sun altitude
Rises 22:38:52 0° 348° (NNW) 4,226 5.7 -8.5°
Reaches altitude 10° 22:41:46 10° 355° (N) 3,338 5.1 -9.1°
Maximum altitude 22:49:42 45° 65° (ENE) 1,816 3.5 -10.9°
Drops below altitude 10° 22:57:54 10° 135° (SE) 3,472 5.1 -12.8°
Sets 23:00:56 0° 141° (SE) 4,408 5.7 -13.5°
